Regional Weather Roundup
Issued by NWS

Home | Current Version | Previous Version | Text Only | Print | Product List | Glossary On
Versions: 1 2 3 4 5 6 7 8 9 10 11 12 13 14 15 16 17 18 19 20 21 22 23 24 25 26 27 28 29 30 31 32 33 34 35 36 37 38 39 40 41 42 43 44 45 46 47 48 49 50
000
ASUS43 KMPX 032101
RWRMN
WEATHER ROUNDUP FOR MINNESOTA
NATIONAL WEATHER SERVICE TWIN CITIES/CHANHASSEN MN
400 PM CDT SUN MAY 03 2015


NOTE: "FAIR" INDICATES FEW OR NO CLOUDS BELOW 12,000 FEET WITH NO
SIGNIFICANT WEATHER AND/OR OBSTRUCTIONS TO VISIBILITY. N/A MEANS
CURRENT SKY AND/OR WEATHER CONDITIONS ARE NOT AVAILABLE.

MNZ060>063-068>070-032200-
   Twin Cities Metro

CITY           SKY/WX    TMP DP  RH WIND       PRES   REMARKS
TWIN CITIES    MOSUNNY   81  52  36 NE5       29.75S
ST PAUL        SUNNY     82  51  34 CALM      29.76S
CRYSTAL        SUNNY     79  55  43 N8        29.76S
LAKEVILLE      MOSUNNY   81  54  39 SW3G16    29.75F
EDEN PRAIRIE   MOSUNNY   79  52  38 NE6       29.74F
SOUTH ST PAUL  MOSUNNY   81  51  35 CALM      29.75S
LAKE ELMO      FAIR      81  52  36 W3        29.77S
$$
MNZ001>005-007-008-013>017-022>024-027-028-032200-
   Northwest Minnesota

CITY           SKY/WX    TMP DP  RH WIND       PRES   REMARKS
BEMIDJI        CLOUDY    66  28  24 NW14      29.89S
HALLOCK        SUNNY     66  21  18 NW17G28   29.88R
ROSEAU         SUNNY     66  28  24 W16G26    29.86R
WARROAD        SUNNY     64  34  32 W21G30    29.86R
THIEF RVR FALL SUNNY     66  25  20 W13G20    29.90R
CROOKSTON      SUNNY     68  25  19 NW21G28   29.90R
MOORHEAD       PTSUNNY   66  28  24 NW10G18   29.93S
PARK RAPIDS    CLOUDY    66  30  26 NW10      29.90S
MAHNOMEN       MOCLDY    62  28  27 N5        29.91S
$$
MNZ006-009>011-018-025>026-032200-
   North Central Minnesota

CITY           SKY/WX    TMP DP  RH WIND       PRES   REMARKS
BAUDETTE       MOSUNNY   67  27  22 NW20G26   29.84S
FLAG ISLAND    SUNNY     61  34  36 NW26G32   29.83R
INTL FALLS     CLOUDY    65  34  31 NW13      29.84S
WASKISH        PTSUNNY   64  37  36 W8        29.87F
BIG FORK       CLOUDY    64  27  24 W7        29.87S
LONGVILLE      CLOUDY    64  30  27 NW5       29.89S
GRAND RAPIDS   CLOUDY    63  34  34 W13       29.88R
CRANE LAKE     CLOUDY    63  27  25 NW8       29.84S
COOK           CLOUDY    64  34  32 W9        29.85R
WALKER         CLOUDY    62  30  29 NW7       29.89S
$$
MNZ012-019>021-037-032200-
   Northeast Minnesota

CITY           SKY/WX    TMP DP  RH WIND       PRES   REMARKS
DULUTH         CLOUDY    71  33  24 NW17G24   29.82R
ELY            CLOUDY    64  30  27 W14G24    29.82S
HIBBING        CLOUDY    66  30  26 NW13      29.85R
EVELETH        CLOUDY    64  32  29 W9G17     29.86R
DULUTH HARBOR  CLOUDY    72  37  28 NW14      29.79R
TWO HARBORS    CLOUDY    77  43  29 NW14G24   29.77R
SILVER BAY     CLOUDY    75  32  20 W8G20     29.76R
GRAND MARAIS     N/A     48  43  82 VRB5      29.75R
G MARAIS ARPRT CLOUDY    72  30  21 W20G26    29.80R
$$
MNZ029>031-032-039>041-046>048-054>057-064-032200-
   West Central Minnesota

CITY           SKY/WX    TMP DP  RH WIND       PRES   REMARKS
FERGUS FALLS   CLOUDY    64  30  27 N10G18    29.92R
WHEATON        CLOUDY    64  34  32 N16G24    29.93R
MORRIS         CLOUDY    73  37  27 N18G25    29.87F
ALEXANDRIA     CLOUDY    66  39  37 N13       29.91S
ELBOW LAKE     FAIR      68  38  32 N15       29.89F
WADENA         CLOUDY    64  37  36 N12       29.89F
GLENWOOD       CLOUDY    64  39  39 VRB12G21  29.90S
APPLETON       CLOUDY    72  32  23 N22G31    29.87F
BENSON         CLOUDY    68  32  26 NE15G25   29.88S
ORTONVILLE     CLOUDY    72  32  23 N21       29.89S
MADISON        PTSUNNY   68  34  28 N13       29.92R
WILLMAR        FAIR      73  39  29 N26G32    29.86S
$$
MNZ033>034-036-042>043-049>051-058-059-032200-
   Central Minnesota

CITY           SKY/WX    TMP DP  RH WIND       PRES   REMARKS
ST CLOUD       MOSUNNY   74  42  31 N13G25    29.82R
SAUK CENTRE    LGT RAIN  65  40  40 N12       29.89S
PAYNESVILLE    CLOUDY    67  37  32 NW15G26   29.87R
AITKIN         CLOUDY    66  28  24 NW12G17   29.87R
PINE RIVER     LGT RAIN  66  39  37 NW7G17    29.93R
BRAINERD       LGT RAIN  64  41  42 NW16      29.89R
STAPLES        LGT RAIN  64  36  34 N7        29.88F
LONG PRAIRIE   CLOUDY    64  36  34 NW10G20   29.91R
LITTLE FALLS   PTSUNNY   68  32  26 NW13G18   29.89R
LITCHFIELD     PTSUNNY   75  45  33 N22G28    29.83R
BUFFALO        CLOUDY    74  49  40 N6        29.79F THUNDER
MAPLE LAKE     CLOUDY    74  56  52 N8        29.81S THUNDER
$$
MNZ037-044-045-052-053-032200-
   East Central Minnesota

CITY           SKY/WX    TMP DP  RH WIND       PRES   REMARKS
PRINCETON      MOSUNNY   79  48  34 N14G20    29.80S
MORA           MOSUNNY   72  41  33 NW17G23   29.84R
CAMBRIDGE      SUNNY     79  57  47 N6        29.78R
RUSH CITY      PTSUNNY   76  53  43 NW6       29.80R
MOOSE LAKE     CLOUDY    72  36  26 N16G22    29.82R
HINCKLEY       CLOUDY    73  43  33 NW18G25   29.81R
CLOQUET        CLOUDY    72  25  17 NW20G26   29.82R
MCGREGOR       CLOUDY    66  36  32 NW14G23   29.87R
$$
MNZ071>073-080-081-089-090-097-098-032200-
   Southwest Minnesota

CITY           SKY/WX    TMP DP  RH WIND       PRES   REMARKS
MONTEVIDEO     PTSUNNY   70  37  30 NE25G31   29.88R
GRANITE FALLS  MOSUNNY   73  37  26 N28G35    29.87R
CANBY          PTSUNNY   67  35  30 N16G24    29.91R
MARSHALL       MOSUNNY   73  37  27 N23G38    29.85R
REDWOOD FALLS  CLOUDY    76  47  35 N20G29    29.81R
OLIVIA         MOSUNNY   73  41  31 N23G37    29.82R
PIPESTONE      MOSUNNY   72  37  28 N22G31    29.86R
WINDOM         SUNNY     82  52  34 NW17G23   29.78R
WORTHINGTON    MOSUNNY   79  54  41 N20G26    29.78S
JACKSON        MOSUNNY   82  43  24 W9        29.77F
TRACY          MOSUNNY   76  41  28 N30G36    29.84R
SLAYTON        SUNNY     75  49  38 N29       29.83S
$$
MNZ065>067-074>077-082>085-091>093-032200-
   South Central Minnesota

CITY           SKY/WX    TMP DP  RH WIND       PRES   REMARKS
MANKATO        MOSUNNY   82  52  34 S10       29.73F
NEW ULM        MOSUNNY   82  52  34 NW22      29.73F
ST JAMES       MOSUNNY   84  46  26 W9        29.75S
FAIRMONT       MOSUNNY   86  48  26 W10       29.74F
GLENCOE        CLOUDY    75  60  59 NW20      29.76R
FARIBAULT      MOSUNNY   84  52  32 S8        29.75F
OWATONNA       SUNNY     84  46  26 S9G17     29.76F
WASECA         MOSUNNY   82  48  30 S3        29.76F
ALBERT LEA     MOSUNNY   82  46  28 S7        29.76F
$$
MNZ078>079-086>088-094>096-032200-
   Southeast Minnesota

CITY           SKY/WX    TMP DP  RH WIND       PRES   REMARKS
ROCHESTER      MOSUNNY   81  50  33 SW7       29.79F
RED WING       SUNNY     82  52  34 SE5       29.73F
STANTON        MOSUNNY   84  51  31 SW9       29.73F
DODGE CENTER   SUNNY     82  52  34 SW7       29.78F
WINONA         MOSUNNY   82  50  32 SW10      29.76F
AUSTIN         MOSUNNY   82  52  34 SW9       29.77F
PRESTON        PTSUNNY   81  48  31 W9        29.80S
$$
ABBREVIATIONS USED IN REMARKS
   TC - TEMPERATURES IN CELSIUS
  WCI - WIND CHILL INDEX
   HX - HEAT INDEX
  VSB - VISIBILITY
$$


USA.gov is the U.S. government's official web portal to all federal, state and local government web resources and services.